This is the latest recevied weather packets stored in our database for station/object AB4KY. If no packets are shown the sender has not sent any weather packets the latest 10 day(s).
| Time | Temp. | Humidity | Pressure | Rain* | Wind** | Luminosity | Snow |
|---|---|---|---|---|---|---|---|
| 1777308613 | 23.33° C | 72% | 1012.1 hPa | 0 mm | - | 188 W/m² | - |
| 1777308309 | 23.33° C | 70% | 1012.3 hPa | 0 mm | - | 196 W/m² | - |
| 1777308004 | 23.33° C | 72% | 1012.1 hPa | 0 mm | - | 250 W/m² | - |
| 1777307703 | 23.33° C | 71% | 1012.2 hPa | 0 mm | - | 317 W/m² | - |
| 1777307398 | 23.33° C | 72% | 1012.2 hPa | 0 mm | - | 322 W/m² | - |
| 1777307096 | 23.89° C | 70% | 1012.1 hPa | 0 mm | - | 385 W/m² | - |
| 1777306793 | 23.33° C | 72% | 1011.9 hPa | 0 mm | - | 454 W/m² | - |
| 1777306490 | 22.78° C | 73% | 1011.9 hPa | 0 mm | - | 328 W/m² | - |
| 1777306186 | 22.22° C | 73% | 1012 hPa | 0 mm | - | 314 W/m² | - |
| 1777305881 | 22.22° C | 75% | 1012.1 hPa | 0 mm | - | 239 W/m² | - |
| 1777305577 | 22.22° C | 74% | 1012 hPa | 0 mm | - | 263 W/m² | - |
| 1777305273 | 21.67° C | 75% | 1012 hPa | 0 mm | - | 246 W/m² | - |
| 1777304967 | 21.67° C | 74% | 1012.1 hPa | 0 mm | - | 236 W/m² | - |
| 1777304664 | 21.67° C | 75% | 1012.4 hPa | 0 mm | - | 253 W/m² | - |
| 1777304361 | 21.11° C | 74% | 1012.6 hPa | 0 mm | - | 226 W/m² | - |
| 1777304058 | 21.11° C | 75% | 1012.8 hPa | 0 mm | - | 197 W/m² | - |
| 1777303755 | 21.11° C | 77% | 1013 hPa | 0 mm | - | 185 W/m² | - |
| 1777303452 | 20.56° C | 76% | 1013.2 hPa | 0 mm | - | 169 W/m² | - |
| 1777303149 | 20.56° C | 76% | 1013.1 hPa | 0 mm | - | 161 W/m² | - |
| 1777302848 | 20.56° C | 78% | 1013.6 hPa | 0 mm | - | 152 W/m² | - |
| 1777302544 | 20.56° C | 77% | 1013.5 hPa | 0 mm | - | 143 W/m² | - |
| 1777302242 | 20.56° C | 78% | 1013.3 hPa | 0 mm | - | 120 W/m² | - |
| 1777301939 | 20.56° C | 79% | 1013.4 hPa | 0 mm | - | 120 W/m² | - |
| 1777301637 | 20° C | 77% | 1013.2 hPa | 0 mm | - | 147 W/m² | - |
| 1777301334 | 20° C | 78% | 1013.3 hPa | 0 mm | - | 159 W/m² | - |
* Rain latest hour (hover to see other rain measurements)
** Current wind speed in m/s (hover to see current wind gust speed)